Regional Weather Roundup
Issued by NWS

Home | Current Version | Previous Version | Graphics & Text | Print | Product List | Glossary Off
Versions: 1 2 3 4 5 6 7 8 9 10 11 12 13 14 15 16 17 18 19 20 21 22 23 24 25 26 27 28 29 30 31 32 33 34 35 36 37 38 39 40 41 42 43 44 45 46 47 48 49 50

000
ASUS43 KTOP 271708
RWRKS

WEATHER ROUNDUP FOR KANSAS
NATIONAL WEATHER SERVICE GOODLAND KS
1200 PM CDT MON MAR 27 2017

NOTE:  "FAIR" INDICATES FEW OR NO CLOUDS BELOW 12,000 FEET WITH NO
SIGNIFICANT WEATHER AND/OR OBSTRUCTIONS TO VISIBILITY.

KSZ001>006-013>018-027>032-041>047-271800-
NORTHWEST KANSAS

CITY           SKY/WX    TMP DP  RH WIND       PRES   REMARKS
GOODLAND       SUNNY     56  43  61 CALM      29.95F
HAYS             N/A     51  44  77 E8        29.99S
HILL CITY      CLOUDY    47  45  93 SE8       29.99S FOG
RUSSELL        PTSUNNY   53  42  66 VRB5      29.97S
$$

KSZ061>065-074>080-084>089-271800-
SOUTHWEST KANSAS

CITY           SKY/WX    TMP DP  RH WIND       PRES   REMARKS
DODGE CITY     SUNNY     54  42  64 VRB3      29.99F
GARDEN CITY    SUNNY     55  39  54 SW8       29.98F
GREAT BEND     CLOUDY    51  44  77 N10       30.00R
LIBERAL        SUNNY     55  43  62 N6        30.01S
PRATT          CLOUDY    50  41  72 N8        30.00R
$$

KSZ066>073-081>083-090>101-271800-
SOUTHEAST KANSAS

CITY           SKY/WX    TMP DP  RH WIND       PRES   REMARKS
CHANUTE        CLOUDY    50  46  86 N10       29.92R
COFFEYVILLE    CLOUDY    54  50  86 N12       29.92S
HUTCHINSON     CLOUDY    50  45  83 N7        29.98R
MEDICINE LODGE   N/A     53  43  68 N8        29.99R
NEWTON         CLOUDY    47  45  93 N14       29.97R
PARSONS        CLOUDY    51  48  89 NW10      29.92F
WICHITA INTL   CLOUDY    49  45  86 N13       29.96S
WICHITA JABRA  CLOUDY    49  45  86 N12       29.96R
WINFIELD       CLOUDY    51  46  83 NW16      29.97R
$$

KSZ007>012-019>026-033>040-048>060-102>105-271800-
NORTHEAST KANSAS

CITY           SKY/WX    TMP DP  RH WIND       PRES   REMARKS
CONCORDIA      CLOUDY    48  45  89 N8        29.99R
EMPORIA        CLOUDY    48  47  96 N9        29.94S
LAWRENCE       LGT RAIN  48  47  96 NW9       29.95R FOG
MANHATTAN      CLOUDY    51  45  79 NE10      29.96F
MARYSVILLE     CLOUDY    48  45  87 N7        29.97S
OLATHE IND     CLOUDY    48  46  93 N13       29.93R
OLATHE EXE     CLOUDY    48  48 100 N10       29.92R
SALINA         CLOUDY    52  46  80 N9        29.99R
TOPEKA BILLARD CLOUDY    49  47  93 N8        29.95F
TOPEKA FORBES  CLOUDY    49  47  93 N13       29.95S FOG
$$



USA.gov is the U.S. government's official web portal to all federal, state and local government web resources and services.